Regional Weather Roundup
Issued by NWS Sterling, VA

Home | Current Version | Previous Version | Graphics & Text | Print | Product List | Glossary On
Versions: 1 2 3 4 5 6 7 8 9 10 11 12 13 14 15 16 17 18 19 20 21 22 23 24 25 26 27 28 29 30 31 32 33 34 35 36 37 38 39 40 41 42 43 44 45 46 47 48 49 50
000
ASUS41 KLWX 301810
RWRLWX

REGIONAL WEATHER ROUNDUP
NATIONAL WEATHER SERVICE BALTIMORE MD/WASHINGTON DC
200 PM EDT SUN AUG 30 2015

Note: "FAIR" indicates few or no clouds below 12,000 feet
with no significant weather and/or obstructions to visibility.
 TC=TEMPERATURE CELSIUS

 * =Non NWS site. Station does not report precipitation (e.g. rain,
    snow, etc.), thunder, or fog.

DCZ001-MDZ009-015-VAZ040>042-051-053>054-301900-
WASHINGTON METRO

CITY           SKY/WX    TMP DP  RH WIND       PRES   REMARKS
WASHINGTON NAT CLOUDY    82  68  62 S8        30.11F
DULLES         CLOUDY    81  65  58 S5        30.11F
ANDREWS AFB    CLOUDY    82  66  57 SW5       30.11F
FT BELVOIR     CLOUDY    83  67  59 VRB3      30.11F
QUANTICO       CLOUDY    79  68  69 S7        30.13F
COLLEGE PARK*  CLOUDY    82  64  54 CALM      30.10F
LEESBURG*      CLOUDY    86  72  62 SW7       30.12F HX  92
MANASSAS*      SUNNY     82  68  61 CALM      30.11F
GAITHERSBURG*  CLOUDY    84  66  54 SW6       30.15F

$$

MDZ006>007-011-014-301900-
BALTIMORE METRO

CITY           SKY/WX    TMP DP  RH WIND       PRES   REMARKS
BWI AIRPORT    CLOUDY    83  68  60 SW5       30.09F
MD SCIENCE CTR   N/A     84  67  56 MISG      30.10F
MARTIN STATE   PTSUNNY   81  73  78 SE7       30.11
ANNAPOLIS      CLOUDY    79  68  69 SE10      30.10F
FORT MEADE*    CLOUDY    81  68  65 SW3       30.13F

$$

MDZ012-015-019>023-301900-
MARYLAND EASTERN SHORE

CITY           SKY/WX    TMP DP  RH WIND       PRES   REMARKS
OCEAN CITY     PTSUNNY   83  65  54 S9        30.12F
SALISBURY      PTSUNNY   86  66  51 SW7       30.12F
BAY BRIDGE AP*   N/A     81  63  54 SW7       30.11F
CAMBRIDGE*     CLOUDY    82  63  51 SW5       30.12S
EASTON*        MOSUNNY   86  64  48 SW12      30.15F

$$

MDZ017>025-301900-
SOUTHERN MARYLAND

CITY           SKY/WX    TMP DP  RH WIND       PRES   REMARKS
PATUXENT RIVER CLOUDY    85  64  49 S8        30.12F
ST INIGOES     PTSUNNY   84  68  58 SE6       30.11F
LEONARDTOWN*   PTSUNNY   82  63  51 CALM      30.14F

$$

MDZ003>005-301900-
NORTH CENTRAL MARYLAND

CITY           SKY/WX    TMP DP  RH WIND       PRES   REMARKS
FREDERICK*     SUNNY     88  66  48 SW3       30.12F HX  90
HAGERSTOWN APT CLOUDY    87  61  41 SW9       30.10F
WESTMINSTER*   CLOUDY    86  66  51 SW5         N/A

$$

MDZ501>502-301900-
WESTERN MARYLAND

CITY           SKY/WX    TMP DP  RH WIND       PRES   REMARKS
OAKLAND*       PTSUNNY   73  61  64 W6        30.23F
CUMBERLAND*    PTSUNNY   88  64  45 S7        30.13F

$$

VAZ025>031-301900-
SHENANDOAH VALLEY

CITY           SKY/WX    TMP DP  RH WIND       PRES   REMARKS
WINCHESTER*    CLOUDY    88  61  40 NW8       30.11F
FRONT ROYAL*   FAIR      86  64  48 SE3       30.11F
LURAY*         FAIR      86  61  42 SE3       30.13F
NEW MARKET*    FAIR      87  62  43 SW7       30.11F
STAUNTON*      CLOUDY    88  58  35 SE3       30.17F
WAYNESBORO*    FAIR      84  60  44 CALM      30.17F

$$

WVZ021-048>050-054>055-301900-
EASTERN WEST VIRGINIA PANHANDLE

CITY           SKY/WX    TMP DP  RH WIND       PRES   REMARKS
MARTINSBURG    CLOUDY    85  63  47 SW6       30.11F
PETERSBURG*    CLOUDY    87  62  43 W6        30.13F

$$

VAZ036>039-050-301900-
CENTRAL FOOTHILLS

CITY           SKY/WX    TMP DP  RH WIND       PRES   REMARKS
CHARLOTTESVILL PTSUNNY   85  63  47 VRB3      30.13F
CULPEPER*      CLOUDY    84  66  53 S3        30.12F
ORANGE*        PTSUNNY   88  61  40 CALM      30.14S
GORDONSVILLE*  FAIR      87  65  47 CALM      30.12S
WARRENTON*     FAIR      87  67  51 S5        30.12F

$$

VAZ055>057-301900-
NORTH AND CENTRAL PIEDMONT

CITY           SKY/WX    TMP DP  RH WIND       PRES   REMARKS
FREDERICKSBRG* CLOUDY    87  67  50 CALM      30.11F HX  90
STAFFORD*      CLOUDY    84  65  53 CALM      30.16F

$$

NCZ024-NYZ072-PAZ021-071-VAZ022-071-301900-
OTHER REGIONAL OBSERVATIONS

CITY           SKY/WX    TMP DP  RH WIND       PRES   REMARKS
NEW YORK CITY  MOSUNNY   89  64  43 VRB3      30.09F HX  90
PHILADELPHIA   PTSUNNY   88  64  44 SW10      30.08F
PITTSBURGH     PTSUNNY   81  64  56 VRB6      30.12F
ROANOKE        CLOUDY    80  62  54 W6        30.19F
RICHMOND       PTSUNNY   88  62  41 S7        30.12F
RALEIGH        CLOUDY    84  59  42 VRB3      30.15F

$$

ANZ530>537-301900-
MARINE OBSERVATIONS

STATION/POSITION TIME  TEMP    WIND        PRES
                       AIR SEA DIR/SP/G
                 (UTC) (F)     (DEG/KT/KT) (MB)
THOMAS PT LIGHT  NOT AVBL

$$




USA.gov is the U.S. government's official web portal to all federal, state and local government web resources and services.